Showing default

COSMOS 2167, 21781

Orbit data source: Space-Track

COSMOS 2167, 21781 is a payload satellite owned by UNKS RF (CIS) in LEO that was launched on Tue, 12 Nov 1991 UTC via a TSIKLON-3 launch vehicle from the Plesetsk Missile And Space Complex (PKMTR). Payload-class satellites include a variety of spacecraft equipped with specific instruments for various scientific and technological missions. These include communications satellites like Starlink; space stations such as the ISS; scientific satellites like the Hubble; Earth observation satellites from companies like Planet Labs, Umbra, and HawkEye 360; GPS; miniature CubeSats for education and research; and military/defense satellites.

Loading next visibility...
Identifier
21781, 1991-077C
Orbit
LEO
Country
Flag of CISCIS
Related business
Manufacturer
NPO PM
Mission
Defense Communications
Bus & Motor
STRELA-3, Unknown motor
Mass
225 kg wet, 225 kg dry
Launch date (UTC)
1991-11-12 (34 years ago)
Launch vehicle
TSIKLON-3
Launch site
Plesetsk Missile And Space Complex (PKMTR)
Object type
Payload
Rocket body
Debris
Shape & HBR
Cyl, 0.8 m
Radar Cross Section
1.257 m², Large (>1 m²)

Expand to show TLE details & history
Last TLE update: 15 hours ago

TLE from 15 hours ago
0 COSMOS 2167
1 21781U 91077C   25340.57337010  .00000035  00000-0  13107-3 0  9996
2 21781  82.6066   3.6378 0007485 151.7511  17.9440 12.64285229571606
Epoch: 2025-12-06T13:45Z
TLE epoch observation values (Epoch: 2025-12-06T13:45:39.176Z)
Latitude
10.14169°
Longitude
-99.69805°
Altitude
1,401.759 km
Speed
7.162 km/s
True Right ascension
12h 09m 15s
True Declination
10° 05' 14"
Sunlit
Object was in daylight at epoch
Visualization orbit readout
Latitude
Unknown
Longitude
Unknown
Altitude
Unknown
Speed
Unknown
Apparent Right ascension
Unknown
Apparent Declination
Unknown
Sunlit
N/A
Visualization observer readout
Local Sidereal Time
02:34:56
Azimuth
Unknown
Elevation
Unknown
Doppler factor
Unknown
Orbital elements
Apogee altitude
1,408.448 km
Perigee altitude
1,396.8 km
Semi-major axis
7,780.761 km
Eccentricity
0.00075
Inclination
82.6066°
RAAN
3.6378°
Arg. of periapsis
151.7511°
True anomaly
17.97045°
Mean anomaly
17.944°
Eccentric anomaly
17.95722°
Mean motion
3.16235 °/min
Orbital period
113.84 mins
BSTAR
0.00013107
Loading maneuver chart data...
Computing Atmospheric mass density...
Loading historical data...
Loading historical data...
Loading historical data...
Loading historical data...
Loading historical data...
Loading historical data...
Loading historical data...

Documentation

Showing up to 5 results
|